Location: Unspecified
(43.4354°N, 0.0000°E)
Time: 08:44:26
(UTC+00:00)

S-56A Canister/Altair - Pass Details

Date: 01 July 2019
Orbit: 632 x 2500 km, 38.9° (Epoch: 17 July)

Event Time Altitude Azimuth Distance (km) Brightness Sun altitude
Rises 10:32:21 0° 201° (SSW) 6,164 12.3 62.3°
Reaches altitude 10° 10:37:26 10° 190° (S) 5,132 12.1 63.0°
Maximum altitude 10:48:22 26° 142° (SE) 3,671 11.9 64.4°
Drops below altitude 10° 10:57:38 10° 92° (E) 4,315 11.7 65.5°
Sets 11:01:23 0° 81° (E) 5,039 11.9 65.9°
